• In France
  • List of Countries
  • For 7 days
  • Water Temperature
  • Satellite Maps
  • Weather Map
  • Weather Widgets
  • user-avatar
    Login

    Hourly Weather San Juan

    Today, 22 September, Saturday

    Time Temperature Precipitation Wind Pressure Humidity
    00:00 +25°C° 0 mm 5 mps 700 mmHg 19%
    01:00 +25°C° 0 mm 5 mps 700 mmHg 20%
    02:00 +23°C° 0 mm 5 mps 700 mmHg 21%
    03:00 +23°C° 0 mm 4 mps 699 mmHg 22%
    04:00 +22°C° 0 mm 4 mps 699 mmHg 24%
    05:00 +25°C° 0 mm 4 mps 700 mmHg 21%
    06:00 +26°C° 0 mm 4 mps 700 mmHg 18%
    07:00 +27°C° 0 mm 5 mps 700 mmHg 16%
    08:00 +29°C° 0 mm 6 mps 700 mmHg 12%
    09:00 +33°C° 0 mm 7 mps 701 mmHg 8%
    10:00 +37°C° 0 mm 8 mps 701 mmHg 3%
    11:00 +38°C° 0 mm 9 mps 700 mmHg 3%
    12:00 +39°C° 0 mm 10 mps 700 mmHg 2%
    13:00 +41°C° 0 mm 11 mps 700 mmHg 1%
    14:00 +39°C° 0 mm 11 mps 700 mmHg 1%
    15:00 +39°C° 0 mm 10 mps 699 mmHg 2%
    16:00 +38°C° 0 mm 10 mps 699 mmHg 2%
    17:00 +35°C° 0 mm 8 mps 700 mmHg 3%
    18:00 +32°C° 0 mm 5 mps 700 mmHg 4%
    19:00 +29°C° 0 mm 3 mps 701 mmHg 5%
    20:00 +28°C° 0 mm 3 mps 701 mmHg 5%
    21:00 +27°C° 0 mm 2 mps 701 mmHg 6%
    22:00 +26°C° 0 mm 2 mps 701 mmHg 6%
    23:00 +25°C° 0 mm 2 mps 700 mmHg 7%

    Tomorrow, 23 September, Sunday

    Time Temperature Precipitation Wind Pressure Humidity
    00:00 +24°C° 0 mm 2 mps 700 mmHg 7%
    01:00 +23°C° 0 mm 2 mps 700 mmHg 8%
    02:00 +22°C° 0 mm 3 mps 700 mmHg 10%
    03:00 +21°C° 0 mm 3 mps 700 mmHg 11%
    04:00 +21°C° 0 mm 3 mps 700 mmHg 13%
    05:00 +21°C° 0 mm 4 mps 700 mmHg 23%
    06:00 +20°C° 0 mm 5 mps 701 mmHg 34%
    07:00 +20°C° 0 mm 6 mps 701 mmHg 44%
    08:00 +22°C° 0 mm 6 mps 702 mmHg 40%
    09:00 +23°C° 0 mm 6 mps 702 mmHg 36%
    10:00 +24°C° 0 mm 6 mps 703 mmHg 32%
    11:00 +26°C° 0 mm 6 mps 702 mmHg 28%
    12:00 +27°C° 0 mm 6 mps 702 mmHg 25%
    13:00 +28°C° 0 mm 5 mps 702 mmHg 22%
    14:00 +28°C° 0 mm 5 mps 702 mmHg 22%
    15:00 +28°C° 0 mm 5 mps 702 mmHg 21%
    16:00 +27°C° 0 mm 5 mps 702 mmHg 21%
    17:00 +26°C° 0 mm 5 mps 702 mmHg 23%
    18:00 +25°C° 0 mm 4 mps 703 mmHg 25%
    19:00 +23°C° 0 mm 4 mps 704 mmHg 28%
    20:00 +22°C° 0 mm 4 mps 705 mmHg 29%
    21:00 +21°C° 0 mm 4 mps 705 mmHg 30%
    22:00 +21°C° 0 mm 4 mps 706 mmHg 31%
    23:00 +20°C° 0 mm 4 mps 705 mmHg 33%

    Day after tomorrow, 24 September, Monday

    Time Temperature Precipitation Wind Pressure Humidity
    00:00 +20°C° 0 mm 4 mps 705 mmHg 34%
    01:00 +19°C° 0 mm 3 mps 705 mmHg 35%
    02:00 +18°C° 0 mm 3 mps 704 mmHg 39%
    03:00 +17°C° 0 mm 4 mps 704 mmHg 43%
    04:00 +15°C° 0 mm 4 mps 704 mmHg 47%
    05:00 +17°C° 0 mm 4 mps 705 mmHg 46%
    06:00 +17°C° 0 mm 4 mps 705 mmHg 46%
    07:00 +17°C° 0 mm 4 mps 706 mmHg 46%
    08:00 +18°C° 0 mm 4 mps 706 mmHg 42%
    09:00 +20°C° 0 mm 3 mps 705 mmHg 39%
    10:00 +21°C° 0 mm 3 mps 705 mmHg 35%
    11:00 +22°C° 0 mm 3 mps 704 mmHg 33%
    12:00 +24°C° 0 mm 3 mps 704 mmHg 31%
    13:00 +25°C° 0 mm 3 mps 703 mmHg 29%
    14:00 +25°C° 0 mm 3 mps 703 mmHg 29%
    15:00 +25°C° 0 mm 3 mps 703 mmHg 29%
    16:00 +26°C° 0 mm 3 mps 702 mmHg 29%
    17:00 +25°C° 0 mm 3 mps 703 mmHg 32%
    18:00 +22°C° 0 mm 3 mps 703 mmHg 34%
    19:00 +21°C° 0 mm 2 mps 704 mmHg 37%
    20:00 +21°C° 0 mm 2 mps 704 mmHg 39%
    21:00 +22°C° 0 mm 1 mps 704 mmHg 41%
    22:00 +21°C° 0 mm 1 mps 704 mmHg 42%
    23:00 +21°C° 0 mm 1 mps 704 mmHg 43%

    25 September, Tuesday

    Time Temperature Precipitation Wind Pressure Humidity
    00:00 +20°C° 0 mm 2 mps 703 mmHg 44%
    01:00 +20°C° 0 mm 2 mps 703 mmHg 45%
    02:00 +19°C° 0 mm 2 mps 703 mmHg 46%
    03:00 +19°C° 0 mm 2 mps 703 mmHg 46%
    04:00 +18°C° 0 mm 2 mps 702 mmHg 46%
    05:00 +19°C° 0 mm 2 mps 703 mmHg 42%
    06:00 +20°C° 0 mm 2 mps 703 mmHg 39%
    07:00 +22°C° 0 mm 1 mps 704 mmHg 35%
    08:00 +23°C° 0 mm 2 mps 704 mmHg 33%
    09:00 +25°C° 0 mm 2 mps 704 mmHg 30%
    10:00 +26°C° 0 mm 2 mps 703 mmHg 28%
    11:00 +27°C° 0 mm 2 mps 703 mmHg 26%
    12:00 +28°C° 0 mm 3 mps 702 mmHg 23%
    13:00 +29°C° 0 mm 3 mps 702 mmHg 21%
    14:00 +29°C° 0 mm 3 mps 701 mmHg 21%
    15:00 +29°C° 0 mm 3 mps 701 mmHg 22%
    16:00 +29°C° 0 mm 4 mps 701 mmHg 22%
    17:00 +28°C° 0 mm 4 mps 701 mmHg 24%
    18:00 +27°C° 0 mm 4 mps 702 mmHg 27%
    19:00 +25°C° 0 mm 3 mps 703 mmHg 29%
    20:00 +25°C° 0 mm 3 mps 703 mmHg 31%
    21:00 +24°C° 0 mm 3 mps 703 mmHg 33%
    22:00 +23°C° 0 mm 2 mps 703 mmHg 34%
    23:00 +22°C° 0 mm 3 mps 703 mmHg 36%

    26 September, Wednesday

    Time Temperature Precipitation Wind Pressure Humidity
    00:00 +21°C° 0 mm 3 mps 703 mmHg 38%
    01:00 +20°C° 0 mm 3 mps 703 mmHg 40%
    02:00 +19°C° 0 mm 3 mps 702 mmHg 44%
    03:00 +19°C° 0 mm 3 mps 702 mmHg 47%
    04:00 +18°C° 0 mm 3 mps 702 mmHg 50%
    05:00 +18°C° 0 mm 4 mps 703 mmHg 50%
    06:00 +17°C° 0 mm 5 mps 703 mmHg 50%
    07:00 +17°C° 0 mm 5 mps 704 mmHg 49%
    08:00 +19°C° 0 mm 6 mps 704 mmHg 49%
    09:00 +20°C° 0 mm 6 mps 704 mmHg 48%
    10:00 +21°C° 0 mm 7 mps 703 mmHg 48%
    11:00 +22°C° 0 mm 6 mps 703 mmHg 45%
    12:00 +22°C° 0 mm 6 mps 703 mmHg 42%
    13:00 +23°C° 0 mm 6 mps 702 mmHg 40%
    14:00 +22°C° 0 mm 7 mps 702 mmHg 41%
    15:00 +21°C° 0 mm 7 mps 702 mmHg 42%
    16:00 +21°C° 0 mm 7 mps 702 mmHg 43%
    17:00 +18°C° 0 mm 7 mps 703 mmHg 47%
    18:00 +17°C° 0 mm 7 mps 703 mmHg 51%
    19:00 +15°C° 0 mm 7 mps 704 mmHg 55%
    20:00 +15°C° 0 mm 6 mps 705 mmHg 57%
    21:00 +14°C° 0 mm 6 mps 705 mmHg 59%
    22:00 +14°C° 0 mm 6 mps 706 mmHg 61%
    23:00 +13°C° 0 mm 5 mps 705 mmHg 63%

    27 September, Thursday

    Time Temperature Precipitation Wind Pressure Humidity
    00:00 +13°C° 0 mm 5 mps 705 mmHg 65%
    01:00 +12°C° 0 mm 5 mps 705 mmHg 68%
    02:00 +12°C° 0 mm 4 mps 705 mmHg 70%
    03:00 +11°C° 0 mm 4 mps 705 mmHg 72%
    04:00 +11°C° 0 mm 4 mps 705 mmHg 74%
    05:00 +11°C° 0 mm 4 mps 705 mmHg 73%
    06:00 +12°C° 0 mm 3 mps 705 mmHg 72%
    07:00 +12°C° 0 mm 3 mps 706 mmHg 71%
    08:00 +13°C° 0 mm 3 mps 705 mmHg 66%
    09:00 +16°C° 0 mm 3 mps 705 mmHg 60%
    10:00 +17°C° 0 mm 3 mps 705 mmHg 55%
    11:00 +18°C° 0 mm 3 mps 704 mmHg 50%
    12:00 +20°C° 0 mm 3 mps 704 mmHg 45%
    13:00 +21°C° 0 mm 3 mps 703 mmHg 41%
    14:00 +21°C° 0 mm 3 mps 702 mmHg 40%
    15:00 +21°C° 0 mm 3 mps 702 mmHg 40%
    16:00 +22°C° 0 mm 3 mps 702 mmHg 40%
    17:00 +20°C° 0 mm 3 mps 702 mmHg 44%
    18:00 +19°C° 0 mm 2 mps 702 mmHg 49%
    19:00 +19°C° 0 mm 1 mps 703 mmHg 53%
    20:00 +18°C° 0 mm 2 mps 702 mmHg 54%
    21:00 +18°C° 0 mm 2 mps 702 mmHg 55%
    22:00 +18°C° 0 mm 2 mps 702 mmHg 56%
    23:00 +18°C° 0 mm 2 mps 702 mmHg 59%
    Show more